Regional Weather Roundup
Issued by NWS

Home | Current Version | Previous Version | Text Only | Print | Product List | Glossary Off
Versions: 1 2 3 4 5 6 7 8 9 10 11 12 13 14 15 16 17 18 19 20 21 22 23 24 25 26 27 28 29 30 31 32 33 34 35 36 37 38 39 40 41 42 43 44 45 46 47 48

000
ASUS45 KBOU 221907
RWRCO

WEATHER ROUNDUP FOR COLORADO
NATIONAL WEATHER SERVICE DENVER/BOULDER CO
100 PM MDT MON SEP 22 2014

NOTE: "FAIR" INDICATES FEW OR NO CLOUDS BELOW 12000 FEET WITH NO
SIGNIFICANT WEATHER AND/OR OBSTRUCTIONS TO VISIBILITY.

COZ001>005-013-030-031-222000-
...NORTHWEST COLORADO...

CITY           SKY/WX    TMP DP  RH WIND       PRES   REMARKS
CRAIG          PTSUNNY   63  50  62 VRB3      30.28F
HAYDEN         PTSUNNY   59  46  63 E5        30.29F
MEEKER         MOSUNNY   65  50  58 CALM      30.28F
MOUNT WERNER   NOT AVBL
STEAMBOAT SPGS CLOUDY    57  45  64 CALM      30.31F
WALDEN         CLOUDY    55  37  50 SW10G16   30.35F
$$

COZ006>008-011-222000-
...WEST CENTRAL VALLEYS...

CITY           SKY/WX    TMP DP  RH WIND       PRES   REMARKS
GRAND JUNCTION MOSUNNY   72  55  55 NW5       30.21F
MONTROSE       PTSUNNY   73  55  53 VRB3      30.26F
EAGLE          PTSUNNY   55  54  94 VRB6      30.35F
RIFLE          PTSUNNY   64  52  64 NE3       30.27F
DELTA          MOSUNNY   76  58  54 SW10      30.22F HAZE
NUCLA          MOSUNNY   77  46  33 SW15G21   30.29F
$$

COZ017>023-064>068-222000-
...SOUTHWEST COLORADO...

CITY           SKY/WX    TMP DP  RH WIND       PRES   REMARKS
DURANGO        MOSUNNY   66  56  70 SE3       30.35F
CORTEZ         SUNNY     75  56  51 S12       30.30S
PAGOSA SPRINGS CLOUDY    62  53  70 SW6       30.41F
TELLURIDE      NOT AVBL
WOLF CREEK PAS LGT RAIN  41  41 100 SW26G41   30.61S VSB<1/4
$$

COZ009-010-012-014-032>034-037-058>063-222000-
...CENTRAL COLORADO...

CITY           SKY/WX    TMP DP  RH WIND       PRES   REMARKS
ASPEN          PTSUNNY   58  46  64 N10G20    30.36R
BUENA VISTA    PTSUNNY   62  50  63 SE12      30.35F
COPPER MTN     PTSUNNY   54  36  50 SW15G30   30.59S THUNDER
BERTHOUD PASS  CLOUDY    39  37  93 NW16G22   30.61S THUNDER
COTTONWOOD PAS PTSUNNY   61  41  48 N8        30.46F
GUNNISON       PTSUNNY   64  50  59 S3        30.38F
KREMMLING      TSTM      55  46  71 SW9G18    30.37R
LEADVILLE      PTSUNNY   55  37  50 W10       30.45F
MONARCH PASS   FOG       43  41  93 W41G47    30.68F VSB<1/4
SALIDA         PTSUNNY   66  51  58 S10G16    30.40F
SUNLIGHT       PTSUNNY   52  50  93 CALM      30.52S
WILKERSON PASS NOT AVBL
$$

COZ069>075-222000-
...SAN LUIS VALLEY/SANGRE DE CRISTO MOUNTAINS...

CITY           SKY/WX    TMP DP  RH WIND       PRES   REMARKS
ALAMOSA        LGT RAIN  71  46  40 W8        30.34F
LA VETA PASS   CLOUDY    54  50  87 S9G17     30.50F
SAGUACHE       NOT AVBL
$$

COZ035-036-038>040-222000-
...NORTHERN COLORADO FRONT RANGE...

CITY           SKY/WX    TMP DP  RH WIND       PRES   REMARKS
DENVER INTL AP PTSUNNY   72  53  51 S13       30.16F
DMNS CITY PARK   N/A     75  55  48 E3G12     30.13F
AURORA         PTSUNNY   72  54  53 S9        30.18F
FRONT RANGE AP PTSUNNY   75  55  50 SE12      30.18S
ERIE MUNI ARPT NOT AVBL
BOULDER MUN AP CLOUDY    70  54  56 N7G16     30.18R
CENTENNIAL     PTSUNNY   71  55  56 SE10      30.19F
BROOMFIELD     PTSUNNY   75  50  41 SE8       30.17F
FORT COLLINS   MOSUNNY   70  54  56 S9        30.18R
LONGMONT       RAIN      69  56  63 N7        30.20R
$$

COZ041-046-047-076>085-087-088-222000-
...PIKES PEAK/PALMER DIVIDE AND SOUTHERN FOOTHILLS...

CITY           SKY/WX    TMP DP  RH WIND       PRES   REMARKS
COLO. SPRINGS  PTSUNNY   66  52  60 SE7       30.25F
A. F. ACADEMY  PTSUNNY   66  52  60 S10       30.26F
ELLICOTT       NOT AVBL
FALCON         PTSUNNY   65  52  62 S6        30.30F
FORT CARSON    PTSUNNY   66  52  60 VRB1      30.23F
LIMON          CLOUDY    71  55  56 S18G25    30.21F
MONUMENT HILL  PTSUNNY   68  50  52 SE15G21   30.27F
TRINIDAD       MOSUNNY   75  56  51 S24G31    30.23F
$$

COZ042>045-048>051-090-091-222000-
...NORTHEAST COLORADO...

CITY           SKY/WX    TMP DP  RH WIND       PRES   REMARKS
GREELEY ARPT   MOSUNNY   75  54  46 S6        30.14S
AKRON          CLOUDY    72  57  59 S20G31    30.15F
BURLINGTON     CLOUDY    71  49  45 S22G35    30.20F
WRAY           CLOUDY    66  59  77 E8        30.17F
STERLING       CLOUDY    73  59  60 S9        30.11F
HOLYOKE        CLOUDY    61  54  77 S10G16    30.17F
FORT MORGAN    CLOUDY    76  51  42 S7        30.13F
$$

COZ086-089-092>099-222000-
...SOUTHEAST COLORADO...

CITY           SKY/WX    TMP DP  RH WIND       PRES   REMARKS
PUEBLO         CLOUDY    70  53  54 W8        30.18F
LA JUNTA       PTSUNNY   81  56  42 S23G30    30.15F
LAMAR          PTSUNNY   77  53  43 S24G36    30.17F
SPRINGFIELD      N/A     72  55  55 S23G32    30.25F
$$


USA.gov is the U.S. government's official web portal to all federal, state and local government web resources and services.